TimeCST,TemperatureF,Dew PointF,Humidity,Sea Level PressureIn,VisibilityMPH,Wind Direction,Wind SpeedMPH,Gust SpeedMPH,PrecipitationIn,Events,Conditions,WindDirDegrees,DateUTC
12:54 AM,42.1,39.0,89,30.26,6.0,SW,10.4,-,N/A,,Overcast,220,2011-11-24 06:54:00
1:54 AM,41.0,39.0,93,30.27,4.0,SW,10.4,-,N/A,,Overcast,220,2011-11-24 07:54:00
2:03 AM,41.0,39.2,93,30.26,4.0,SW,10.4,-,N/A,,Overcast,220,2011-11-24 08:03:00
2:54 AM,41.0,39.0,93,30.27,4.0,SSW,9.2,-,N/A,,Overcast,210,2011-11-24 08:54:00
3:54 AM,41.0,39.0,93,30.27,4.0,SSW,9.2,-,N/A,,Overcast,200,2011-11-24 09:54:00
4:52 AM,42.8,39.2,87,30.24,4.0,SSW,12.7,-,N/A,,Overcast,200,2011-11-24 10:52:00
4:54 AM,42.1,39.0,89,30.26,4.0,SSW,12.7,-,N/A,,Overcast,210,2011-11-24 10:54:00
5:33 AM,42.8,39.2,87,30.24,2.5,SSW,11.5,-,N/A,,Overcast,200,2011-11-24 11:33:00
5:41 AM,42.8,39.2,87,30.23,4.0,South,9.2,-,N/A,,Overcast,190,2011-11-24 11:41:00
5:54 AM,42.1,39.0,89,30.25,4.0,SSW,11.5,-,N/A,,Overcast,200,2011-11-24 11:54:00
6:54 AM,42.1,39.9,92,30.26,5.0,SSW,11.5,-,N/A,,Overcast,200,2011-11-24 12:54:00
7:54 AM,43.0,39.9,89,30.26,4.0,SSW,15.0,-,N/A,,Overcast,200,2011-11-24 13:54:00
8:54 AM,43.0,41.0,93,30.26,4.0,South,15.0,-,N/A,,Overcast,190,2011-11-24 14:54:00
9:54 AM,44.1,41.0,89,30.25,4.0,SSW,15.0,-,N/A,,Overcast,200,2011-11-24 15:54:00
10:54 AM,45.0,42.1,90,30.24,4.0,SSW,15.0,-,N/A,,Overcast,200,2011-11-24 16:54:00
11:54 AM,46.9,42.1,83,30.22,5.0,South,13.8,-,N/A,,Haze,190,2011-11-24 17:54:00
12:37 PM,48.2,42.8,82,30.18,7.0,SSW,15.0,-,N/A,,Mostly Cloudy,200,2011-11-24 18:37:00
12:54 PM,48.9,43.0,80,30.19,7.0,South,17.3,23.0,N/A,,Mostly Cloudy,190,2011-11-24 18:54:00
1:04 PM,50.0,42.8,76,30.17,8.0,South,17.3,26.5,N/A,,Partly Cloudy,190,2011-11-24 19:04:00
1:54 PM,51.8,44.6,76,30.15,9.0,South,16.1,-,N/A,,Clear,190,2011-11-24 19:54:00
2:54 PM,53.1,44.1,71,30.15,10.0,SSW,19.6,-,N/A,,Clear,200,2011-11-24 20:54:00
3:54 PM,52.0,45.0,77,30.14,10.0,South,17.3,-,N/A,,Clear,180,2011-11-24 21:54:00
4:54 PM,48.9,44.1,83,30.14,8.0,South,13.8,-,N/A,,Clear,180,2011-11-24 22:54:00
5:54 PM,48.0,43.0,83,30.14,10.0,South,13.8,-,N/A,,Clear,190,2011-11-24 23:54:00
6:54 PM,46.0,43.0,89,30.13,9.0,South,12.7,-,N/A,,Clear,180,2011-11-25 00:54:00
7:54 PM,45.0,43.0,93,30.12,4.0,South,13.8,-,N/A,,Clear,180,2011-11-25 01:54:00
8:54 PM,44.1,42.1,93,30.11,7.0,South,13.8,-,N/A,,Clear,180,2011-11-25 02:54:00
9:54 PM,44.1,41.0,89,30.11,7.0,South,11.5,-,N/A,,Clear,190,2011-11-25 03:54:00
10:54 PM,42.8,39.2,87,30.09,7.0,South,10.4,-,N/A,,Clear,190,2011-11-25 04:54:00
11:54 PM,42.1,39.9,92,30.09,6.0,South,10.4,-,N/A,,Clear,180,2011-11-25 05:54:00